CW0630 Weather Reports


Display with metric or nautical units.
time (UTC)temp
F
wind
direction
speed
MPH
gust
MPH
rain 1hr
in
rain 24hr
in
rain mn
in
humidity
%
barometer
mb
20260831111011 72 188 0.0 0.0 0.00 0.00 0.00 91 1019.1
20260831101025 72 189 0.0 0.0 0.00 0.00 0.00 90 1018.8
20260831091025 74 189 0.0 0.0 0.00 0.00 0.00 87 1018.7
20260831081018 76 185 3.0 3.0 0.00 0.00 0.00 84 1018.7
20260831071015 75 212 0.0 1.0 0.00 0.00 0.00 85 1018.8
20260831061032 75 203 0.0 2.0 0.00 0.00 0.00 85 1019.1
20260831051025 76 187 0.0 0.0 0.00 0.00 0.00 85 1019.5
20260831041021 78 187 0.0 0.0 0.00 0.00 0.00 81 1019.7
20260831031012 79 186 1.0 1.0 0.00 0.00 0.00 78 1019.8
20260831021028 78 189 0.0 0.0 0.00 0.00 0.00 80 1019.8
20260831011015 78 189 0.0 0.0 0.00 0.00 0.00 80 1020.0
20260831001017 80 189 0.0 0.0 0.00 0.00 0.00 76 1019.1
20260830231026 83 187 1.0 1.0 0.00 0.00 0.00 69 1019.2
20260830221030 86 199 3.0 4.0 0.00 0.00 0.00 64 1019.2
20260830211015 87 175 0.0 0.0 0.00 0.00 0.00 63 1018.7
20260830201020 88 165 0.0 0.0 0.00 0.00 0.00 64 1019.3
20260830191013 89 231 0.0 0.0 0.00 0.00 0.00 64 1020.3
20260830181031 88 193 2.0 2.0 0.00 0.00 0.00 64 1021.4
20260830171046 86 209 1.0 4.0 0.00 0.00 0.00 68 1022.1
20260830161017 86 196 3.0 3.0 0.00 0.00 0.00 67 1022.5
20260830151035 83 188 0.0 0.0 0.00 0.00 0.00 74 1022.8
20260830141025 79 193 0.0 0.0 0.00 0.00 0.00 84 1022.9
20260830131015 74 205 0.0 0.0 0.00 0.00 0.00 94 1023.6
20260830121023 72 147 0.0 0.0 0.00 0.00 0.00 96 1023.7